Commerce, GA

6:28 PM EDT on August 25, 2016 (GMT -0400)
Jefferson

Weather History for K19A - October, 2012

Change the Weather History Date:

Monday, October 8, 2012

  Actual Average (KGVL) Record (KGVL)
Temperature  
Mean Temperature 54 °F 64 °F  
Max Temperature 57 °F 74 °F 90 °F (1939)
Min Temperature 51 °F 54 °F 30 °F (1935)
Degree Days  
Heating Degree Days 11 3  
Month to date heating degree days 19  
Since 1 July heating degree days 32  
Cooling Degree Days 0 2  
Month to date cooling degree days 19  
Year to date cooling degree days 1560  
Growing Degree Days 4 (Base 50)    
Moisture  
Dew Point 41 °F    
Average Humidity 60    
Maximum Humidity 88    
Minimum Humidity 44    
Precipitation  
Precipitation 0.00 in 0.14 in 1.64 in (2008)
Month to date precipitation 1.33  
Year to date precipitation 42.26  
Sea Level Pressure  
Sea Level Pressure 30.12 in    
Wind  
Wind Speed 2 mph ()    
Max Wind Speed 8 mph    
Max Gust Speed -    
Visibility 10.0 miles    
Events      
T = Trace of Precipitation, MM = Missing Value Source: Averaged Metar Reports

Daily Weather History Graph

Daily Weather History Graph

Search for Another Location

Airport or City:

Trip Planner

Search our weather history database for the weather conditions in past years. The results will help you decide how hot, cold, wet, or windy it might be!

Date:

Astronomy

Oct. 08, 2012 Rise Set
Actual Time 7:34 AM EDT 7:08 PM EDT
Civil Twilight 7:09 AM EDT 7:33 PM EDT
Nautical Twilight 6:40 AM EDT 8:02 PM EDT
Astronomical Twilight 6:11 AM EDT 8:31 PM EDT
Moon 12:30 AM EDT (10/8) 2:40 PM EDT (10/8)
Length of Visible Light 12h 24m
Length of Day
11h 33m
Waning Gibbous, 46% of the Moon is Illuminated
Oct 8
Waning Gibbous
Oct 15
New
Oct 21
First Quarter
Oct 29
Full
Nov 6
Last Quarter

Hourly Weather History & Observations

Time (EDT) Temp. Dew Point Humidity Pressure Visibility Wind Dir Wind Speed Gust Speed Precip Events Conditions
12:15 AM 53.6 °F 50.0 °F 88% 30.09 in 10.0 mi Calm Calm - N/A   Mostly Cloudy
12:35 AM 53.6 °F 50.0 °F 88% 30.08 in 10.0 mi Calm Calm - N/A   Mostly Cloudy
12:55 AM 55.4 °F 48.2 °F 77% 30.09 in 10.0 mi Calm Calm - N/A   Overcast
1:15 AM 55.4 °F 50.0 °F 82% 30.08 in 10.0 mi Calm Calm - N/A   Overcast
1:35 AM 55.4 °F 46.4 °F 72% 30.08 in 10.0 mi Calm Calm - N/A   Overcast
1:55 AM 55.4 °F 46.4 °F 72% 30.08 in 10.0 mi East 3.5 mph - N/A   Overcast
2:15 AM 57.2 °F 46.4 °F 67% 30.07 in 10.0 mi East 4.6 mph - N/A   Overcast
2:35 AM 55.4 °F 46.4 °F 72% 30.07 in 10.0 mi East 3.5 mph - N/A   Overcast
2:55 AM 57.2 °F 44.6 °F 63% 30.09 in 10.0 mi ENE 5.8 mph - N/A   Overcast
3:15 AM 57.2 °F 44.6 °F 63% 30.09 in 10.0 mi East 3.5 mph - N/A   Overcast
3:35 AM 57.2 °F 44.6 °F 63% 30.09 in 10.0 mi East 4.6 mph - N/A   Overcast
3:55 AM 55.4 °F 44.6 °F 67% 30.09 in 10.0 mi East 3.5 mph - N/A   Overcast
4:15 AM 55.4 °F 44.6 °F 67% 30.09 in 10.0 mi East 3.5 mph - N/A   Overcast
4:35 AM 55.4 °F 44.6 °F 67% 30.08 in 10.0 mi Calm Calm - N/A   Overcast
4:55 AM 55.4 °F 44.6 °F 67% 30.09 in 10.0 mi Calm Calm - N/A   Overcast
5:15 AM 55.4 °F 44.6 °F 67% 30.09 in 10.0 mi ENE 4.6 mph - N/A   Overcast
5:35 AM 55.4 °F 41.0 °F 58% 30.09 in 10.0 mi East 6.9 mph - N/A   Overcast
5:55 AM 55.4 °F 41.0 °F 58% 30.09 in 10.0 mi East 4.6 mph - N/A   Overcast
6:15 AM 55.4 °F 41.0 °F 58% 30.09 in 10.0 mi East 8.1 mph - N/A   Overcast
6:35 AM 55.4 °F 41.0 °F 58% 30.10 in 10.0 mi East 3.5 mph - N/A   Overcast
6:55 AM 55.4 °F 41.0 °F 58% 30.10 in 10.0 mi Calm Calm - N/A   Overcast
7:15 AM 55.4 °F 39.2 °F 54% 30.10 in 10.0 mi ENE 5.8 mph - N/A   Overcast
7:35 AM 55.4 °F 37.4 °F 51% 30.11 in 10.0 mi East 4.6 mph - N/A   Overcast
7:55 AM 53.6 °F 39.2 °F 58% 30.11 in 10.0 mi East 6.9 mph - N/A   Overcast
8:15 AM 53.6 °F 39.2 °F 58% 30.11 in 10.0 mi East 6.9 mph - N/A   Overcast
8:35 AM 53.6 °F 37.4 °F 54% 30.12 in 10.0 mi East 6.9 mph - N/A   Overcast
8:55 AM 53.6 °F 37.4 °F 54% 30.14 in 10.0 mi ENE 3.5 mph - N/A   Overcast
9:15 AM 53.6 °F 39.2 °F 58% 30.15 in 10.0 mi NE 3.5 mph - N/A   Overcast
9:35 AM 53.6 °F 41.0 °F 62% 30.15 in 10.0 mi East 4.6 mph - N/A   Overcast
9:55 AM 53.6 °F 41.0 °F 62% 30.15 in 10.0 mi East 4.6 mph - N/A   Overcast
10:15 AM 53.6 °F 39.2 °F 58% 30.16 in 10.0 mi ENE 3.5 mph - N/A   Overcast
10:35 AM 53.6 °F 37.4 °F 54% 30.17 in 10.0 mi NE 4.6 mph - N/A   Overcast
10:55 AM 53.6 °F 37.4 °F 54% 30.17 in 10.0 mi ENE 3.5 mph - N/A   Overcast
11:15 AM 53.6 °F 37.4 °F 54% 30.16 in 10.0 mi ENE 5.8 mph - N/A   Overcast
11:35 AM 55.4 °F 35.6 °F 47% 30.16 in 10.0 mi ENE 4.6 mph - N/A   Overcast
11:55 AM 55.4 °F 35.6 °F 47% 30.17 in 10.0 mi ENE 6.9 mph - N/A   Overcast
12:15 PM 55.4 °F 37.4 °F 51% 30.17 in 10.0 mi Calm Calm - N/A   Overcast
12:35 PM 53.6 °F 35.6 °F 51% 30.16 in 10.0 mi East 3.5 mph - N/A   Overcast
12:55 PM 55.4 °F 35.6 °F 47% 30.14 in 10.0 mi NE 5.8 mph - N/A   Overcast
1:15 PM 55.4 °F 35.6 °F 47% 30.15 in 10.0 mi East 5.8 mph - N/A   Overcast
1:55 PM 55.4 °F 35.6 °F 47% 30.13 in 10.0 mi ENE 3.5 mph - N/A   Overcast
2:15 PM 55.4 °F 35.6 °F 47% 30.13 in 10.0 mi ENE 4.6 mph - N/A   Overcast
2:35 PM 55.4 °F 35.6 °F 47% 30.12 in 10.0 mi Calm Calm - N/A   Overcast
2:55 PM 55.4 °F 35.6 °F 47% 30.11 in 10.0 mi East 3.5 mph - N/A   Overcast
3:15 PM 57.2 °F 35.6 °F 44% 30.11 in 10.0 mi East 3.5 mph - N/A   Overcast
3:35 PM 57.2 °F 35.6 °F 44% 30.11 in 10.0 mi ENE 4.6 mph - N/A   Overcast
3:55 PM 55.4 °F 35.6 °F 47% 30.10 in 10.0 mi NNE 4.6 mph - N/A   Overcast
4:15 PM 57.2 °F 37.4 °F 48% 30.10 in 10.0 mi Calm Calm - N/A   Overcast
4:35 PM 55.4 °F 37.4 °F 51% 30.10 in 10.0 mi Calm Calm - N/A   Overcast
4:55 PM 55.4 °F 37.4 °F 51% 30.10 in 10.0 mi Calm Calm - N/A   Overcast
5:15 PM 55.4 °F 37.4 °F 51% 30.11 in 10.0 mi Calm Calm - N/A   Overcast
5:35 PM 55.4 °F 37.4 °F 51% 30.11 in 10.0 mi East 3.5 mph - N/A   Overcast
5:55 PM 55.4 °F 37.4 °F 51% 30.11 in 10.0 mi Calm Calm - N/A   Overcast
6:15 PM 55.4 °F 39.2 °F 54% 30.11 in 10.0 mi ENE 3.5 mph - N/A   Overcast
6:35 PM 53.6 °F 39.2 °F 58% 30.11 in 10.0 mi Calm Calm - N/A   Overcast
6:55 PM 53.6 °F 41.0 °F 62% 30.11 in 10.0 mi Calm Calm - N/A   Overcast
7:15 PM 53.6 °F 41.0 °F 62% 30.11 in 10.0 mi Calm Calm - N/A   Overcast
7:55 PM 53.6 °F 41.0 °F 62% 30.12 in 10.0 mi Calm Calm - N/A   Overcast
8:35 PM 51.8 °F 41.0 °F 67% 30.12 in 10.0 mi Calm Calm - N/A   Mostly Cloudy
8:55 PM 51.8 °F 41.0 °F 67% 30.12 in 10.0 mi Calm Calm - N/A   Overcast
9:15 PM 51.8 °F 42.8 °F 71% 30.13 in 10.0 mi Calm Calm - N/A   Mostly Cloudy
9:35 PM 51.8 °F 44.6 °F 76% 30.14 in 10.0 mi Calm Calm - N/A   Overcast
9:55 PM 51.8 °F 44.6 °F 76% 30.15 in 10.0 mi Calm Calm - N/A   Overcast
10:15 PM 51.8 °F 44.6 °F 76% 30.15 in 10.0 mi Calm Calm - N/A   Overcast
10:35 PM 51.8 °F 44.6 °F 76% 30.16 in 10.0 mi East 3.5 mph - N/A   Overcast
10:55 PM 51.8 °F 42.8 °F 71% 30.16 in 10.0 mi East 3.5 mph - N/A   Overcast
11:15 PM 51.8 °F 42.8 °F 71% 30.16 in 10.0 mi East 3.5 mph - N/A   Overcast
11:55 PM 51.8 °F 42.8 °F 71% 30.16 in 10.0 mi Calm Calm - N/A   Overcast